This is the latest recevied weather packets stored in our database for station/object KN6WGU. If no packets are shown the sender has not sent any weather packets the latest 10 day(s).
| Time | Temp. | Humidity | Pressure | Rain* | Wind** | Luminosity | Snow |
|---|---|---|---|---|---|---|---|
| 1778109625 | 10.56° C | 65% | 1006.7 hPa | 0 mm | - | 47 W/m² | - |
| 1778109322 | 10.56° C | 64% | 1006.4 hPa | 0 mm | - | 63 W/m² | - |
| 1778109015 | 10° C | 66% | 1006.3 hPa | 0 mm | - | 49 W/m² | - |
| 1778108711 | 10° C | 66% | 1006.5 hPa | 0 mm | - | 45 W/m² | - |
| 1778108409 | 10° C | 65% | 1006.4 hPa | 0 mm | - | 46 W/m² | - |
| 1778108105 | 10° C | 67% | 1006.7 hPa | 0 mm | - | 50 W/m² | - |
| 1778107802 | 10° C | 66% | 1006.7 hPa | 0 mm | - | 53 W/m² | - |
| 1778107498 | 10° C | 66% | 1006.5 hPa | 0 mm | - | 65 W/m² | - |
| 1778107195 | 10° C | 66% | 1006.7 hPa | 0 mm | - | 60 W/m² | - |
| 1778106891 | 10° C | 65% | 1006.7 hPa | 0 mm | - | 46 W/m² | - |
| 1778106588 | 10.56° C | 66% | 1006.7 hPa | 0 mm | - | 36 W/m² | - |
| 1778106285 | 10.56° C | 65% | 1006.7 hPa | 0 mm | - | 49 W/m² | - |
| 1778105981 | 10.56° C | 65% | 1006.7 hPa | 0 mm | - | 58 W/m² | - |
| 1778105678 | 10.56° C | 65% | 1006.7 hPa | 0 mm | - | 71 W/m² | - |
| 1778105376 | 10.56° C | 64% | 1006.6 hPa | 0 mm | - | 74 W/m² | - |
| 1778105072 | 10.56° C | 66% | 1006.5 hPa | 0 mm | - | 78 W/m² | - |
| 1778104768 | 10.56° C | 65% | 1006.6 hPa | 0 mm | - | 68 W/m² | - |
| 1778104465 | 10.56° C | 65% | 1006.4 hPa | 0 mm | - | 75 W/m² | - |
| 1778104160 | 10.56° C | 66% | 1006.3 hPa | 0 mm | - | 71 W/m² | - |
| 1778103858 | 11.11° C | 64% | 1006.4 hPa | 0 mm | - | 77 W/m² | - |
| 1778103555 | 11.11° C | 64% | 1006.1 hPa | 0 mm | - | 84 W/m² | - |
| 1778103253 | 11.11° C | 64% | 1006.1 hPa | 0 mm | - | 86 W/m² | - |
| 1778102950 | 11.67° C | 64% | 1006 hPa | 0 mm | - | 103 W/m² | - |
| 1778102646 | 11.11° C | 63% | 1006 hPa | 0 mm | - | 92 W/m² | - |
| 1778102340 | 11.67° C | 62% | 1005.9 hPa | 0 mm | - | 92 W/m² | - |
* Rain latest hour (hover to see other rain measurements)
** Current wind speed in m/s (hover to see current wind gust speed)